RH
58 58 57 56 56 55 54 54 54 54 54 53 52 50 48 46 44 42 40 36 34 31 28 26 24 22 21 20 19 18 17 16 16 16 15 15 14 14 14 13 13 12 12 12 11 11 10 10 10 9 9 8 8 8 7 7 6 6 6 5 5 5 4 4 4 4 4 4 4 4 3 3 3 3 3 3 3 3 3 3 3 3 3 3 3 3
60 59 58 56 56 56 56 55 55 55 54 52 50 48 46 43 40 38 35 32 30 27 25 24 22 21 20 19 18 18 17 16 16 16 15 15 14 14 14 13 12 12 12 11 10 10 10 9 8 8 7 7 6 6 6 5 5 5 4 4 4 4 4 4 4 4 3 3 3 3 3 3 3 3 3 3 3 3 3 3 4 4 4 4 4 4
62 60 58 57 56 57 57 57 56 54 52 50 47 44 42 39 36 34 31 28 26 24 23 22 20 20 19 18 18 18 17 16 16 16 15 14 14 14 13 12 12 11 10 10 9 8 8 7 6 6 6 5 5 4 4 4 4 4 4 4 4 4 4 4 3 3 3 3 3 3 3 3 4 4 4 4 4 4 4 5 5 5 5 5 5 5
62 60 59 58 58 58 58 56 54 52 49 46 43 40 37 34 32 30 27 26 24 23 22 21 20 20 19 18 18 18 17 16 16 15 14 14 13 12 11 10 10 9 8 8 7 6 6 5 5 4 4 4 4 4 4 4 4 4 4 4 4 4 4 4 4 4 4 4 4 4 4 4 4 5 5 6 6 6 6 7 7 7 8 8 8 8
62 60 60 59 59 58 56 53 50 47 44 41 38 35 33 30 28 26 25 24 23 22 21 21 20 20 19 18 18 17 16 16 14 14 13 12 11 10 9 8 7 7 6 6 5 5 4 4 4 4 4 4 4 4 4 4 4 4 4 4 4 4 4 4 4 4 5 5 5 5 5 6 6 7 8 8 8 9 10 10 10 10 10 11 12 12
61 60 60 59 58 56 52 49 45 42 39 36 34 32 29 28 26 25 24 23 23 22 22 21 20 20 19 18 17 16 15 14 12 11 10 9 8 7 6 6 6 5 5 4 4 4 4 4 4 4 4 4 4 4 5 5 5 5 5 5 5 5 6 6 6 6 6 6 6 6 7 8 8 10 11 12 12 13 13 13 14 14 15 16 18 18
61 60 59 57 54 51 47 43 40 37 34 32 30 29 27 26 25 24 24 23 23 22 22 21 20 18 17 16 14 13 12 11 10 8 8 7 6 6 5 5 4 4 4 4 4 4 4 5 5 5 5 5 5 6 6 6 6 6 6 6 6 6 6 6 6 6 6 6 7 7 8 10 11 13 14 16 16 17 18 18 19 20 21 23 24 26
61 59 56 53 49 45 42 38 36 33 31 30 28 27 26 26 25 24 24 24 23 22 21 19 18 16 15 13 12 10 9 8 7 6 6 5 5 5 4 4 4 4 5 5 5 5 5 6 6 6 6 6 6 6 7 7 7 7 7 7 7 7 7 7 7 7 6 6 7 8 8 10 13 16 18 20 21 22 22 23 24 26 28 29 31 32
58 55 51 47 43 40 37 35 33 31 30 28 28 27 26 26 26 25 24 23 22 20 18 17 15 13 12 10 8 8 7 6 6 5 5 5 5 5 5 5 5 5 6 6 6 6 6 6 7 7 7 7 7 7 8 8 8 8 8 8 8 7 7 7 7 7 7 6 7 7 8 10 13 16 20 22 24 26 27 28 29 31 32 34 34 35
53 49 46 42 39 36 34 32 32 30 29 28 28 27 27 26 26 24 23 22 20 18 16 13 11 10 8 8 6 6 5 5 5 5 5 5 5 5 6 6 6 6 7 7 7 7 8 8 8 8 8 8 8 8 8 8 8 8 8 8 8 8 8 7 7 7 7 7 6 7 7 8 12 15 19 23 26 28 30 31 32 34 35 36 36 36
48 44 40 38 36 34 32 32 31 30 30 29 28 28 26 25 24 22 20 18 16 14 12 10 8 7 6 6 5 5 5 5 5 5 5 6 6 6 6 7 7 7 8 8 8 8 8 8 8 8 8 8 8 8 8 8 8 8 8 8 8 8 8 7 7 7 7 7 6 6 6 7 9 12 16 20 24 27 30 31 33 34 35 35 36 36
43 40 38 36 35 34 32 32 31 30 30 29 28 26 25 24 21 19 16 14 12 10 9 8 6 6 5 5 5 5 5 6 6 6 6 6 7 7 8 8 8 8 8 8 8 8 8 8 8 8 8 8 8 8 8 8 8 8 8 8 8 8 8 7 7 7 7 7 7 6 6 6 8 9 12 16 20 24 27 29 30 32 33 34 35 36
40 38 36 35 34 34 33 32 31 30 29 28 26 24 22 20 18 15 13 11 9 8 7 6 6 5 5 5 6 6 6 6 6 7 7 7 7 8 8 8 8 8 8 8 8 8 8 8 8 8 8 8 8 8 8 8 8 8 8 8 8 8 8 8 7 7 7 7 7 6 6 6 7 8 9 12 15 19 22 24 26 28 30 32 34 35
38 37 36 35 34 34 32 32 30 29 27 25 23 20 18 16 14 11 10 8 7 6 6 5 5 5 6 6 6 6 7 7 7 7 7 7 7 7 7 7 7 7 8 8 8 8 8 8 8 8 8 8 8 9 9 9 9 8 8 8 8 8 8 8 7 7 7 6 6 6 6 6 6 7 8 9 12 14 18 20 22 24 26 30 32 35
38 36 36 35 34 33 32 30 28 26 24 22 19 17 14 12 10 8 7 6 6 5 5 5 5 6 6 7 7 7 7 7 6 6 6 6 7 7 7 7 7 7 8 8 8 8 8 9 9 9 10 10 10 10 10 10 10 9 9 9 8 8 8 8 7 7 7 6 6 6 6 6 7 7 7 8 10 12 14 16 18 21 24 28 32 35
37 36 35 34 33 32 30 28 25 22 20 18 15 13 10 9 8 7 6 6 5 5 6 6 6 6 6 7 7 7 7 6 6 6 6 7 7 8 8 8 8 8 9 9 10 10 10 10 10 10 11 11 11 11 11 10 10 10 10 10 9 9 8 8 8 7 7 7 6 6 6 7 7 7 8 8 9 10 12 14 16 19 22 26 30 34
36 36 34 32 31 29 27 24 21 18 16 14 12 10 8 7 6 6 5 5 6 6 6 6 6 6 6 7 7 7 7 7 7 7 8 8 8 9 10 10 10 10 11 11 12 12 12 12 12 12 13 13 13 12 12 12 12 12 11 11 10 10 9 9 8 8 8 8 7 7 7 7 8 8 8 8 10 10 12 13 15 17 20 24 29 34
36 34 32 30 28 25 23 20 18 15 12 10 9 8 6 6 6 5 5 6 6 6 6 6 7 7 7 7 8 8 8 8 8 9 10 10 11 12 12 12 12 13 13 14 14 15 15 15 15 15 15 15 15 15 15 14 14 14 13 12 12 11 11 10 10 10 9 9 8 8 8 8 8 9 10 10 10 11 12 13 14 16 18 22 27 32
34 32 29 26 24 21 19 16 14 12 10 8 7 6 6 5 5 6 6 6 6 7 7 7 7 8 8 8 9 10 10 11 11 12 12 13 14 14 15 15 16 16 16 17 18 18 18 18 18 18 18 18 18 18 17 17 16 16 15 14 14 13 13 12 12 11 11 11 10 10 10 10 10 10 11 11 12 12 12 13 14 15 16 19 24 28
31 28 26 23 20 18 15 13 11 9 8 6 6 6 6 6 6 6 6 7 7 7 7 8 8 9 10 11 12 12 13 14 14 14 15 16 17 18 18 19 19 20 21 21 22 22 22 22 22 21 21 21 21 20 20 20 19 18 18 17 16 16 15 14 14 14 13 13 12 12 12 12 12 12 13 13 13 14 14 14 14 14 14 16 20 24
27 24 22 19 16 14 12 10 8 7 6 6 6 6 6 6 6 7 7 7 8 8 8 9 10 11 12 14 14 15 16 16 17 18 18 19 20 21 22 23 24 24 26 26 26 26 26 26 26 25 25 24 24 24 24 23 22 21 20 19 18 18 17 16 16 15 15 14 14 14 14 14 14 14 14 15 15 15 15 15 14 14 14 14 16 19
23 21 18 16 13 11 9 8 7 6 6 6 6 6 6 7 7 7 8 8 9 10 10 11 12 13 14 16 16 18 18 20 20 21 21 22 23 25 26 28 29 30 32 32 32 32 32 31 30 30 29 29 28 28 27 26 26 24 23 22 21 19 18 17 16 16 16 16 15 15 15 15 16 16 16 16 16 16 16 16 15 14 13 13 14 16
20 17 15 13 10 9 8 6 6 6 6 6 6 7 7 8 8 8 9 10 10 11 11 12 13 14 16 17 18 20 22 23 24 25 26 26 27 29 32 34 35 36 38 39 39 39 38 37 36 35 34 34 33 32 32 31 30 28 27 25 23 21 20 18 17 16 16 16 16 16 16 16 16 16 16 17 17 17 17 16 16 15 14 12 12 12
16 14 12 10 8 7 6 6 6 6 6 7 7 8 8 8 9 10 10 11 11 12 12 13 14 16 17 19 22 24 26 28 30 30 31 31 32 34 36 39 41 42 43 44 44 44 44 43 42 40 40 39 38 38 36 36 34 33 31 28 26 24 21 19 18 17 16 16 15 15 15 15 16 16 16 16 17 17 17 16 16 15 14 13 12 11
14 12 10 8 7 6 6 6 6 7 7 8 8 8 8 9 10 10 11 12 12 13 13 14 16 18 20 22 26 29 32 34 36 36 36 36 36 37 40 42 44 45 46 47 48 49 49 48 47 46 44 44 43 42 42 40 40 38 36 33 30 27 24 21 19 18 16 16 15 15 14 15 15 15 16 16 16 16 16 16 16 16 15 14 12 10
11 10 8 7 6 6 6 7 7 8 8 8 8 9 10 10 11 12 13 14 14 15 16 18 19 21 23 26 29 32 35 38 39 39 38 37 37 38 39 42 44 45 46 47 49 50 51 51 51 50 48 48 47 47 46 46 45 43 41 38 34 31 27 24 22 20 18 16 16 15 15 15 15 16 16 16 16 17 17 17 17 16 16 14 12 11
10 8 7 6 6 6 7 8 8 8 8 9 10 10 11 12 13 14 14 15 16 17 19 20 22 24 26 28 30 32 35 37 38 38 36 35 34 35 36 38 40 41 42 44 46 49 50 52 52 52 51 51 51 51 51 51 50 49 47 44 40 36 32 28 24 22 20 18 17 16 16 16 16 16 16 17 18 18 18 18 18 17 16 15 13 12
8 7 6 6 6 7 8 8 8 9 10 10 11 12 12 13 14 15 16 16 17 18 20 22 24 25 26 28 29 30 32 34 34 33 31 30 30 30 31 32 34 36 38 40 42 45 48 51 52 53 53 53 54 54 56 56 56 56 53 50 46 41 36 32 28 24 22 20 18 18 17 17 17 17 18 18 18 18 18 18 18 18 16 15 14 12
6 6 6 7 7 8 8 9 10 10 11 12 13 14 14 15 15 16 16 17 18 20 22 24 24 26 26 26 26 26 27 28 28 28 26 26 26 26 26 28 30 32 34 36 38 41 45 49 52 54 54 55 56 58 60 61 62 61 60 56 52 47 42 37 32 28 24 22 20 19 18 18 18 18 18 19 19 19 19 19 19 18 17 16 14 13
6 6 7 8 8 9 10 10 11 12 13 14 14 15 15 16 16 16 17 19 21 23 24 24 24 24 23 22 21 21 22 23 24 23 22 22 22 23 24 26 28 31 34 35 36 38 40 46 50 54 55 56 58 60 62 65 66 66 64 60 57 52 48 42 36 31 27 24 22 20 20 19 19 19 19 20 20 20 20 20 19 18 18 16 15 14
6 7 8 9 10 10 11 12 12 13 14 15 15 16 16 16 16 18 20 22 24 24 24 24 22 20 18 18 17 17 18 20 21 22 21 22 22 22 24 26 28 31 34 36 37 37 37 41 46 52 55 57 59 61 64 66 68 67 66 63 60 57 52 46 40 35 30 27 24 23 22 21 20 20 20 20 20 20 20 20 20 19 18 17 16 14
8 8 9 10 10 12 12 13 14 14 15 16 16 16 16 16 18 20 23 24 25 24 22 20 18 16 15 15 16 17 19 20 22 23 23 23 23 24 24 27 29 32 34 37 38 38 37 38 42 47 52 56 58 61 64 66 67 67 66 64 62 59 55 50 44 38 33 30 27 26 24 23 22 22 21 21 21 21 21 21 20 20 18 18 16 15
9 10 10 11 12 13 14 14 14 15 15 15 15 16 16 18 21 24 26 25 24 22 19 17 16 15 14 16 17 18 21 22 24 24 24 24 24 24 26 28 30 32 35 37 38 39 38 38 40 43 48 52 56 59 62 64 65 65 64 63 61 58 55 50 45 40 36 33 30 28 27 26 24 24 23 23 23 22 22 22 21 20 19 18 16 15
10 10 11 12 13 14 14 14 15 15 15 15 15 16 18 22 24 26 26 24 23 20 18 17 16 15 15 16 18 20 22 24 24 25 26 25 25 26 26 28 31 33 34 36 38 39 39 40 40 42 44 48 52 56 60 61 62 62 62 60 58 55 52 48 45 41 38 35 33 32 30 28 27 26 26 26 25 24 23 22 21 20 19 18 17 15
11 12 12 13 13 14 14 15 15 15 15 15 16 18 22 25 27 27 26 24 23 21 19 18 17 16 16 17 18 19 21 23 25 26 26 26 26 27 28 30 32 34 34 35 36 38 39 40 42 43 44 46 50 53 57 58 58 58 57 56 53 50 48 46 43 40 38 36 35 34 32 31 30 30 29 28 27 26 24 23 22 20 19 18 16 15
12 12 13 13 14 14 15 15 15 15 14 16 18 22 26 27 28 28 27 26 24 23 22 20 19 18 18 18 18 19 21 22 24 26 26 27 27 28 29 31 33 35 35 35 36 38 38 40 42 43 44 45 47 49 52 54 54 54 52 50 48 46 44 42 41 39 38 36 35 34 34 33 33 32 32 30 29 27 25 23 22 20 19 18 16 14
13 13 13 14 14 15 15 15 15 15 15 18 22 25 28 29 29 29 29 28 28 26 24 23 22 20 20 19 19 20 20 22 23 24 26 26 27 28 29 31 34 35 36 36 37 38 38 39 40 42 44 44 44 45 47 48 49 49 48 46 45 44 42 40 39 38 37 36 36 36 36 35 34 34 32 31 29 27 24 23 21 20 18 17 16 14
14 14 14 14 15 15 15 15 14 15 17 20 24 28 30 30 31 31 32 32 31 30 28 27 26 24 23 22 22 21 21 22 23 24 25 26 27 28 28 30 32 34 36 36 36 36 36 36 37 38 39 40 40 41 42 42 43 43 42 42 42 42 41 40 39 38 37 37 36 36 35 34 34 32 31 29 27 25 23 22 20 19 18 16 15 14
14 14 14 15 15 15 15 15 15 16 19 23 27 30 31 32 33 34 34 35 34 34 33 32 31 30 28 27 26 25 24 24 24 25 25 26 26 27 28 28 29 31 32 34 34 34 33 33 33 32 32 33 34 36 37 38 38 38 37 38 39 40 40 39 38 36 35 34 34 33 32 31 30 28 27 26 24 23 22 21 20 19 18 16 14 13
15 15 15 15 16 16 15 15 16 18 22 26 29 31 32 34 35 36 37 38 38 38 38 37 36 36 34 33 32 30 29 28 28 28 28 28 28 28 28 28 29 30 30 31 32 32 31 31 31 31 30 30 31 32 34 35 35 34 34 35 36 37 37 36 34 33 31 30 30 30 29 28 28 27 27 26 26 25 24 24 23 21 19 16 14 12
15 15 16 16 16 16 15 15 16 20 24 28 31 33 34 35 37 38 40 40 41 42 42 42 42 42 42 40 38 36 35 34 33 32 32 32 32 32 32 32 32 33 34 34 34 35 35 35 36 36 36 36 36 37 38 38 38 38 37 38 38 40 40 41 40 38 37 38 38 38 38 38 38 38 38 37 36 35 34 32 30 27 24 19 16 12
16 16 16 16 16 16 16 16 18 22 26 30 33 35 36 37 39 40 42 43 44 45 46 47 48 49 49 48 46 44 42 41 40 39 39 39 38 38 39 40 40 41 42 43 44 45 46 47 48 49 50 51 51 51 52 52 53 54 54 54 56 59 61 60 58 58 56 55 55 55 56 56 56 56 57 58 56 53 49 45 42 37 32 26 20 16
16 16 17 17 17 16 16 17 20 24 28 32 35 36 38 39 40 42 43 44 46 48 50 51 52 53 54 54 54 53 51 49 47 46 46 46 47 47 48 49 50 51 52 54 56 58 59 60 62 63 64 64 64 65 66 67 68 68 68 67 68 68 69 68 67 65 64 64 64 65 66 66 68 70 72 71 69 66 62 58 53 49 43 37 31 27
16 17 18 18 18 16 16 18 21 25 30 34 37 38 40 41 42 43 45 46 48 50 52 53 54 55 56 58 58 59 58 57 55 54 53 53 53 54 55 56 58 58 60 60 62 64 65 67 68 69 69 69 69 70 71 72 73 73 73 71 70 70 71 69 68 66 66 68 68 68 69 70 72 74 74 74 73 72 69 66 62 58 54 49 45 42
17 18 18 18 18 17 17 18 22 27 32 36 38 40 42 42 44 45 47 49 51 53 54 54 54 55 56 57 59 61 63 62 62 60 58 58 58 58 59 60 61 62 62 63 63 63 64 65 66 68 70 71 72 72 74 74 75 75 75 74 74 72 72 70 70 71 72 72 72 72 72 73 74 74 75 74 74 73 72 70 68 66 63 60 56 54
18 18 19 19 18 18 18 19 23 28 34 37 40 42 43 44 46 47 49 51 53 54 55 54 54 54 54 55 57 60 63 65 66 65 64 64 62 62 62 62 63 63 63 63 62 62 61 60 60 62 65 69 72 73 74 74 75 75 76 75 75 74 74 74 74 74 74 74 74 74 74 74 74 74 74 74 74 72 71 69 68 66 64 62 59 56
18 19 20 20 19 18 18 20 24 28 34 39 42 43 44 46 47 49 51 53 54 55 55 54 54 53 52 53 54 57 60 64 66 68 68 68 66 66 66 65 65 64 64 64 63 62 60 58 56 56 58 62 66 70 73 74 74 74 74 74 75 75 75 75 74 74 74 73 73 73 72 70 70 71 71 71 70 69 67 65 63 61 58 56 53 50
19 20 21 21 20 19 18 20 24 28 34 40 43 45 46 48 49 51 52 54 55 55 55 54 53 52 52 52 53 55 58 62 65 68 70 71 70 70 69 69 68 67 66 66 65 64 62 60 56 54 53 56 60 66 70 72 73 72 72 72 72 73 74 74 73 71 69 68 67 65 63 62 61 62 63 63 63 62 60 56 54 52 50 48 46 44
20 21 22 22 21 20 19 20 23 28 34 40 45 48 49 50 51 52 53 54 54 54 54 53 52 52 52 53 54 56 58 61 64 66 69 71 73 73 74 73 73 72 71 70 68 68 67 65 61 57 52 52 55 60 66 70 72 73 71 69 68 69 70 71 70 69 66 65 63 61 58 55 54 54 54 56 57 57 55 50 47 45 43 42 40 39
20 21 22 23 22 22 20 20 22 27 33 40 45 49 51 52 52 53 53 54 54 54 53 52 52 52 53 54 56 57 58 60 62 65 67 69 71 73 74 74 74 74 74 74 73 72 72 71 68 64 58 55 53 54 58 64 68 72 73 71 69 68 69 70 70 70 68 66 64 61 57 53 50 50 50 53 55 56 56 52 49 45 42 40 40 40
20 22 23 24 24 23 21 20 22 25 31 38 44 49 52 53 54 54 54 54 54 54 54 54 53 54 54 56 57 58 59 60 62 63 65 66 68 70 71 72 73 74 75 75 75 75 75 75 74 71 68 63 58 56 55 57 61 66 70 72 72 71 70 71 72 71 70 68 65 62 58 53 50 48 48 51 54 56 58 58 56 52 47 45 44 44
Wind_Speed
66 66 67 68 68 69 69 70 70 70 71 71 71 71 71 71 71 71 71 71 71 72 72 72 73 74 75 76 77 78 79 79 80 81 82 83 83 84 85 85 86 87 87 88 89 89 90 90 91 92 93 93 94 95 95 96 96 97 97 97 98 98 98 98 98 98 98 98 97 97 97 97 96 96 96 95 95 95 95 94 94 94 93 93 93 93
67 68 69 69 70 70 70 71 71 71 71 71 71 71 71 71 71 71 71 71 72 73 73 74 75 76 77 78 79 80 81 82 83 83 84 85 86 87 87 88 89 89 90 91 91 92 93 93 94 94 95 95 96 96 96 97 97 97 97 97 97 97 96 96 96 95 95 94 94 93 93 92 92 91 90 90 89 89 88 88 87 87 87 86 86 86
69 69 70 70 70 70 70 71 71 71 71 71 71 71 71 71 71 71 71 72 73 74 75 76 77 78 79 80 81 82 83 84 85 86 87 88 88 89 90 91 91 92 93 93 94 94 95 95 95 96 96 96 96 96 96 96 96 95 95 94 94 93 93 92 91 90 90 89 88 87 87 86 85 85 84 83 83 82 81 81 80 80 79 79 78 78
70 70 71 71 71 70 70 70 71 71 71 71 71 71 71 71 71 72 72 73 74 75 76 77 79 80 81 82 83 84 85 86 87 88 89 90 91 92 93 93 94 94 95 95 95 96 96 96 95 95 95 95 94 94 93 92 92 91 90 89 89 88 87 86 85 84 83 82 81 81 80 79 78 77 76 76 75 74 74 73 72 72 71 71 70 70
71 71 71 71 70 70 70 70 70 71 71 71 71 71 72 72 72 73 74 75 76 77 78 79 80 82 83 84 85 86 88 89 90 91 92 92 93 94 95 95 95 96 96 96 95 95 94 94 93 93 92 91 90 89 88 87 86 85 84 83 82 81 80 79 78 77 76 75 74 73 72 71 70 69 68 68 67 67 66 66 65 64 63 63 62 61
71 71 71 71 70 70 70 70 71 71 71 72 72 72 72 73 74 74 75 76 78 79 80 81 82 84 85 86 88 89 90 91 92 93 94 94 95 95 96 96 95 95 95 94 93 92 91 90 89 88 87 86 85 83 82 81 79 78 77 76 75 74 73 72 71 70 69 68 67 66 65 64 63 62 61 61 60 60 59 58 58 57 56 56 55 55
71 71 71 71 70 70 70 71 71 72 72 72 73 73 74 74 75 76 77 78 79 81 82 83 84 85 87 89 90 91 92 93 94 94 95 95 95 95 95 94 94 93 92 90 89 88 87 86 84 83 82 80 79 77 76 74 73 72 71 70 68 68 67 66 65 64 63 62 61 60 59 58 57 56 56 55 55 54 54 53 52 52 51 51 51 51
71 71 71 70 70 71 71 71 72 72 73 74 74 75 75 76 77 78 79 80 81 82 84 85 86 88 89 91 92 93 94 94 94 94 94 94 93 93 92 91 90 88 87 86 84 83 82 80 79 78 76 74 73 72 70 69 68 67 66 65 64 63 63 62 61 60 59 58 57 56 55 55 54 53 53 52 52 51 51 50 50 49 49 49 49 49
70 70 71 70 70 71 71 72 73 73 74 75 76 76 77 78 79 79 81 82 83 84 85 87 88 89 91 92 93 93 94 94 93 92 92 91 90 89 87 86 85 83 82 80 78 77 76 75 74 72 71 69 68 67 66 65 64 64 63 62 62 61 61 60 59 59 58 57 56 55 54 53 53 52 51 51 50 50 49 49 49 49 49 49 49 49
70 70 70 71 71 71 72 73 74 75 75 76 77 78 79 79 80 81 82 83 84 86 87 88 90 91 92 93 93 93 92 91 91 89 88 86 85 84 82 81 79 77 76 74 73 72 71 70 69 68 67 66 65 64 64 63 62 62 62 61 61 60 60 59 59 58 57 57 56 55 54 53 53 52 52 51 51 50 50 49 49 49 49 49 49 49
71 71 71 71 72 73 73 74 75 76 77 78 79 80 81 81 82 83 84 85 86 87 89 90 90 91 91 91 91 90 89 87 86 85 83 81 80 78 76 75 73 72 70 69 68 67 67 66 66 65 65 64 64 63 63 62 62 61 61 61 60 60 59 59 58 58 57 56 56 55 54 54 53 53 52 52 51 51 50 50 50 49 49 49 49 49
71 71 71 72 73 74 75 75 76 77 78 79 80 81 82 83 83 84 85 87 88 89 89 90 90 90 89 88 87 86 85 83 81 79 77 76 74 72 71 69 68 67 66 66 65 65 65 65 65 64 64 64 63 63 63 62 62 61 61 60 60 59 59 58 58 57 57 56 55 55 55 54 54 53 53 52 52 52 51 50 50 49 49 49 49 48
71 72 72 73 74 75 76 77 78 79 79 80 81 82 83 84 85 86 87 88 89 89 89 89 88 87 86 84 83 81 80 78 76 74 71 70 68 67 65 65 64 64 63 64 64 64 64 64 64 64 64 63 63 63 62 62 61 61 61 60 59 59 58 58 57 57 56 55 55 54 54 54 54 53 53 53 53 52 51 51 50 49 49 48 48 48
72 73 73 74 75 76 77 78 79 80 80 81 82 83 84 86 87 88 89 89 89 89 87 86 84 83 82 80 78 76 74 72 70 68 66 65 64 63 62 62 62 62 62 62 63 63 63 63 63 63 63 62 62 62 62 61 61 60 60 59 59 58 58 57 57 56 55 55 54 54 53 53 53 53 53 53 53 52 51 50 50 49 48 48 47 47
73 74 75 76 76 77 78 79 80 81 82 82 83 85 86 87 88 89 88 88 87 86 84 82 80 78 76 74 72 70 69 68 66 64 62 61 61 61 60 60 61 61 61 61 61 62 62 62 61 61 61 61 61 61 61 60 60 59 59 59 58 58 57 56 56 55 55 54 53 53 53 52 52 52 52 52 52 51 51 50 49 48 47 47 47 47
74 75 76 77 78 78 79 80 81 82 83 84 85 86 87 88 88 88 87 85 84 82 80 77 74 72 71 69 67 65 63 63 62 61 59 59 59 60 60 60 60 60 60 60 60 61 61 60 60 60 60 60 60 59 59 59 59 58 58 57 57 56 56 55 55 54 54 53 52 52 51 51 51 51 51 51 51 50 49 48 48 47 46 46 46 46
75 76 77 78 78 79 80 81 82 83 84 85 87 87 88 88 87 86 84 82 79 77 74 71 68 65 64 64 64 62 61 60 60 59 58 58 59 60 60 60 60 60 60 59 59 59 59 59 59 58 58 58 58 58 58 58 57 57 57 56 56 55 55 54 53 53 52 52 51 50 50 50 50 50 50 50 49 49 48 47 46 46 46 45 46 46
76 77 78 78 79 80 81 82 83 85 86 87 87 87 87 86 84 82 79 77 74 71 68 66 63 60 58 58 59 61 60 59 59 59 58 58 59 60 60 60 60 60 59 59 59 58 58 57 57 57 57 57 57 57 56 56 56 55 55 55 54 54 53 53 52 51 51 50 49 49 49 48 48 48 48 48 48 47 46 45 45 44 45 45 45 46
77 78 78 79 80 81 82 83 85 86 87 87 86 85 84 83 80 77 74 71 68 65 62 60 58 57 56 56 58 60 60 60 60 60 59 59 59 60 60 60 60 59 58 58 57 57 56 56 56 55 55 55 55 55 55 55 54 54 53 53 53 52 51 51 50 50 49 49 48 48 47 47 47 46 46 46 46 45 44 44 43 43 44 44 45 45
77 78 79 80 81 82 83 85 86 86 86 86 85 82 80 77 74 71 67 65 62 60 58 56 55 55 56 57 58 60 61 61 61 61 61 60 60 60 60 60 59 59 58 57 56 56 55 55 54 54 54 54 54 54 54 53 53 52 52 51 51 50 50 49 49 48 48 47 47 46 46 46 45 45 45 45 44 44 43 42 42 42 43 43 44 45
78 79 80 81 82 83 84 85 86 86 85 83 81 78 75 71 68 64 62 59 57 56 55 54 55 56 57 58 60 61 63 63 63 63 62 61 61 61 61 60 59 58 57 56 56 55 54 54 53 53 53 53 53 53 53 52 52 51 51 50 49 49 48 48 47 47 46 46 46 45 45 44 44 44 44 43 43 42 42 41 41 41 42 43 44 44
78 79 80 82 83 84 84 85 84 83 81 78 75 71 68 64 61 58 57 55 54 54 54 55 56 57 58 60 61 63 64 65 65 65 64 63 62 62 62 61 60 58 57 56 55 54 53 53 52 52 52 53 53 53 52 52 51 51 50 49 49 48 48 47 46 46 45 45 44 44 44 43 43 43 43 42 42 41 41 40 40 40 41 42 43 44
79 80 81 83 84 84 84 83 81 79 76 72 68 64 61 58 55 54 53 53 53 54 55 56 58 59 61 62 63 65 66 67 67 67 66 65 64 63 63 62 60 59 58 56 55 54 53 52 51 51 52 52 52 52 52 52 51 50 50 49 48 48 47 46 46 45 44 44 43 43 43 42 42 42 41 41 40 40 39 39 39 39 40 41 42 43
80 81 82 83 84 83 82 79 76 73 69 65 61 58 55 53 52 52 52 53 55 56 57 59 60 62 63 64 65 66 68 69 69 68 68 66 65 64 63 62 61 60 58 57 55 54 53 51 51 51 51 52 52 52 52 51 51 50 49 49 48 47 47 46 45 44 44 43 42 42 41 41 40 40 39 39 39 38 38 38 38 38 39 40 42 43
81 82 83 83 82 80 77 74 70 66 62 59 56 53 52 51 51 53 54 56 57 59 60 62 63 64 65 66 66 67 68 69 69 69 68 67 66 64 63 62 61 60 58 57 55 54 52 51 50 50 50 51 51 52 52 51 51 50 49 49 48 47 47 46 45 44 43 43 42 41 40 39 39 38 38 37 37 37 37 37 37 37 38 40 41 42
82 83 82 81 79 75 71 67 63 59 56 53 51 50 50 51 53 55 57 59 60 62 63 64 65 66 66 66 67 67 68 69 69 69 68 67 66 64 63 62 61 59 58 57 55 53 52 51 50 49 50 50 50 51 51 51 50 50 49 48 48 47 46 46 45 44 43 42 41 40 39 39 38 37 36 36 35 35 35 35 35 36 37 39 41 42
82 81 80 77 73 69 64 60 56 53 51 49 49 49 51 52 54 57 59 61 62 64 65 66 66 67 67 66 66 66 66 67 67 68 67 66 64 63 61 60 59 58 57 55 54 52 51 50 49 49 48 49 49 49 49 49 49 49 48 48 47 47 46 45 45 44 43 42 41 40 39 38 37 36 35 34 34 34 33 33 34 35 36 38 40 41
80 78 75 71 67 62 58 54 50 48 47 48 49 51 52 54 56 58 60 62 64 65 66 66 66 66 66 65 64 64 64 64 65 65 65 64 62 61 59 58 57 56 55 54 52 50 49 48 47 47 47 47 47 47 47 47 47 47 47 47 46 46 46 45 45 44 43 42 41 40 39 38 37 36 35 34 33 33 32 32 33 34 35 37 39 40
77 74 69 64 59 55 51 48 46 46 47 48 50 53 55 56 58 60 62 63 64 65 66 66 65 65 64 63 62 60 60 60 61 62 62 60 59 58 56 55 55 54 53 52 50 47 46 45 45 45 44 44 44 44 44 45 45 45 45 45 45 45 45 45 44 44 43 42 42 41 39 38 37 36 35 34 33 32 32 32 32 33 34 36 37 39
72 67 62 57 52 48 45 44 44 46 47 50 52 54 56 58 60 61 63 64 64 64 64 64 63 62 61 59 58 57 56 57 58 58 58 57 56 54 53 52 52 51 50 49 47 45 42 41 41 41 41 41 41 41 41 42 42 43 43 43 44 44 44 44 44 44 43 43 42 41 40 39 38 37 35 34 33 32 32 31 31 32 33 35 36 38
65 59 54 49 46 43 42 42 44 46 49 51 53 56 58 59 61 62 62 63 62 62 61 61 60 59 57 56 54 53 53 53 54 55 54 54 53 51 50 49 48 47 47 46 45 42 39 37 36 36 37 37 37 38 38 39 40 41 41 42 42 43 43 44 44 44 43 42 42 41 40 39 38 37 36 35 34 33 32 31 31 31 32 33 35 37
57 51 46 43 41 40 41 43 45 47 50 52 54 56 58 60 60 61 61 60 60 59 58 57 56 55 54 53 52 51 50 51 51 52 51 51 49 48 46 45 44 43 42 41 40 39 36 33 31 31 32 33 33 34 35 36 37 39 39 40 40 41 42 43 43 43 43 42 42 41 41 40 39 38 37 36 35 33 32 31 30 31 31 32 34 35
48 44 40 39 39 40 42 44 46 48 50 53 55 57 58 59 59 59 58 58 57 56 55 55 54 52 51 50 49 49 48 49 49 49 48 47 46 44 42 40 39 37 36 35 34 34 32 29 27 26 27 28 29 30 32 33 35 36 37 38 39 40 41 42 42 42 42 42 41 41 41 40 40 39 38 37 36 35 33 31 30 30 30 32 33 34
41 38 37 37 38 40 42 44 47 49 51 53 55 56 57 57 57 56 56 55 54 54 53 52 51 50 50 49 47 47 46 46 46 46 45 44 42 40 37 35 34 32 31 29 28 27 26 25 23 23 22 23 25 27 29 31 32 34 35 37 37 38 39 40 41 41 41 41 41 40 40 40 40 39 39 38 37 36 34 32 30 30 30 31 32 33
36 35 35 37 39 41 43 45 47 50 52 53 54 55 55 54 54 53 53 52 52 51 51 50 49 48 48 47 46 45 44 44 44 43 42 41 39 37 34 32 30 28 27 25 23 22 21 20 19 19 20 20 21 23 26 28 30 32 33 35 36 37 38 38 39 39 39 39 39 39 40 40 40 39 39 39 38 36 34 32 30 29 29 30 31 32
33 34 35 37 39 41 43 46 48 50 52 53 53 53 52 51 50 50 50 50 49 49 48 48 47 47 46 46 45 44 43 42 41 40 39 38 36 34 31 29 28 26 25 23 21 19 18 17 16 17 18 18 19 21 23 26 28 30 32 33 34 35 36 36 37 37 38 38 38 38 39 39 39 39 39 39 38 36 34 32 30 29 28 29 30 31
32 34 36 37 39 41 44 46 48 50 51 51 51 50 49 48 48 48 47 47 47 46 46 46 45 45 45 44 44 44 43 41 40 39 37 36 34 32 30 28 26 25 24 22 20 18 17 16 15 15 16 17 18 19 21 23 26 28 29 31 32 33 34 35 35 36 36 36 37 37 38 38 38 38 38 38 37 35 33 31 29 28 27 28 29 30
32 34 36 37 39 41 44 46 48 49 49 49 48 47 46 46 45 45 45 45 45 44 44 43 43 43 43 43 43 43 42 41 40 38 37 35 33 31 29 27 25 24 23 22 21 19 18 16 15 15 15 16 17 18 20 22 24 25 27 28 29 31 32 33 34 35 35 36 36 36 37 37 37 37 37 36 35 33 31 29 27 26 26 27 28 28
32 34 36 38 40 42 44 46 47 48 48 47 45 44 44 43 43 43 43 43 43 42 42 42 42 41 42 42 42 42 42 41 40 38 37 35 33 32 30 28 26 24 23 23 22 21 19 18 18 17 16 16 16 17 19 21 23 24 25 26 27 29 30 32 33 34 35 35 35 35 35 35 35 35 34 33 31 30 28 26 25 24 25 25 26 26
32 34 36 38 40 42 44 45 46 46 46 44 43 42 42 42 42 42 42 41 41 41 40 40 40 40 40 41 41 41 40 40 39 38 37 36 34 32 31 29 27 25 24 23 23 22 21 20 19 19 18 17 17 17 18 20 22 23 24 24 25 26 28 30 32 33 33 33 33 32 32 32 31 30 29 28 26 25 24 23 22 22 23 23 24 24
33 34 36 38 40 42 44 45 45 45 44 42 41 41 40 40 40 40 40 40 40 39 39 39 39 39 39 39 39 39 39 39 38 37 37 35 34 33 31 30 28 27 25 24 23 23 22 22 20 19 19 18 17 16 17 18 20 21 22 22 22 23 24 27 28 30 30 30 29 28 27 26 25 23 22 21 20 20 19 19 19 20 21 21 22 22
33 34 36 38 40 42 43 44 44 43 42 41 40 39 39 39 39 39 38 38 38 38 38 38 37 37 37 37 37 37 37 37 37 36 36 35 34 33 31 30 29 28 26 25 24 24 23 22 21 20 19 17 16 15 15 16 18 19 19 19 19 20 21 23 25 26 26 25 24 23 22 21 19 18 17 17 16 16 15 16 17 18 18 19 19 19
33 34 36 38 40 41 43 43 43 42 41 40 39 38 38 38 38 37 37 37 37 37 37 36 36 35 35 35 35 35 36 36 35 35 34 34 33 32 31 30 29 28 27 26 25 24 23 22 22 21 19 18 16 15 14 15 16 17 18 19 19 19 19 21 22 23 24 23 22 21 20 18 17 16 15 14 14 14 14 14 15 16 16 17 17 17
33 34 36 38 40 41 42 42 42 41 40 38 38 38 37 37 37 37 36 36 36 36 36 35 34 34 33 33 33 33 33 34 34 34 34 33 32 32 31 31 30 29 28 27 26 25 24 23 22 21 19 18 17 16 15 15 15 16 17 19 20 20 20 21 21 22 23 23 22 21 20 18 17 15 14 13 13 12 12 13 13 14 15 15 15 15
33 34 36 38 39 41 41 41 41 40 39 38 37 37 37 37 36 36 36 36 35 35 35 34 33 33 32 31 31 31 32 32 33 33 33 33 32 32 31 31 30 30 29 28 27 26 25 24 22 20 18 18 17 17 16 15 15 15 16 18 19 19 20 21 21 21 21 21 21 21 19 17 15 14 12 12 11 11 11 12 12 13 13 13 14 14
32 34 36 37 39 40 40 40 40 39 38 37 36 36 36 36 36 35 35 35 35 34 34 33 33 32 31 31 30 30 30 30 31 32 32 32 32 32 32 31 31 30 30 29 28 27 26 24 22 20 18 17 16 17 17 16 16 15 15 16 17 17 18 19 19 19 19 18 18 17 17 15 13 11 10 10 10 10 10 11 11 11 12 12 13 13
32 34 35 37 38 39 40 40 39 38 37 36 36 35 35 35 35 35 34 34 34 33 33 32 32 31 31 30 30 29 29 29 29 30 30 30 31 31 31 31 31 30 30 29 29 28 27 26 24 21 19 17 16 16 17 17 17 16 16 15 15 15 16 16 17 17 16 16 15 15 14 12 11 9 8 8 8 8 9 10 10 11 11 12 13 13
32 33 35 37 38 39 39 39 39 38 37 36 35 35 35 34 34 34 33 33 33 32 32 31 31 31 30 30 30 29 29 29 28 28 28 28 29 29 29 29 29 29 29 29 29 29 28 28 26 24 22 20 18 17 17 17 17 17 17 16 15 15 15 15 16 16 16 15 15 14 13 12 10 9 7 7 7 8 9 9 10 11 11 12 13 14
32 33 35 36 37 38 39 39 38 37 36 35 34 34 34 34 33 33 33 32 32 32 31 31 30 30 29 29 29 29 29 28 28 27 27 27 27 27 26 26 26 26 26 26 27 27 28 28 29 28 26 24 22 20 18 18 18 18 18 17 17 16 15 15 16 16 17 16 16 15 14 13 11 9 8 7 7 8 9 10 11 12 12 13 14 15
31 33 34 36 37 38 38 38 38 37 36 35 34 33 33 33 33 33 32 32 31 31 30 30 29 29 29 28 28 28 28 28 27 27 26 26 26 25 25 25 24 24 23 23 23 23 24 25 27 29 29 28 26 23 20 18 17 16 16 17 17 16 16 16 16 17 18 18 18 17 17 15 14 12 11 10 9 10 11 12 13 14 14 15 15 16
31 33 34 35 36 37 38 38 38 37 36 35 34 33 32 32 32 32 31 31 30 30 29 29 29 28 28 28 28 28 28 28 27 27 26 26 26 25 25 24 23 22 21 21 20 20 20 21 22 25 28 30 30 28 25 21 18 16 15 15 15 16 16 16 17 17 18 19 20 20 19 18 17 15 14 13 12 12 13 14 15 16 17 17 17 17
Wind_Direction
299 299 299 299 299 299 299 299 298 298 298 298 298 297 297 297 297 296 296 296 295 295 295 294 294 294 293 293 293 293 293 293 293 292 292 292 292 291 291 291 291 290 290 290 289 289 289 288 288 288 287 287 286 286 285 285 284 284 283 283 282 282 281 281 280 280 279 279 278 278 277 277 277 276 275 275 274 274 273 273 272 272 271 271 270 270
299 299 299 299 299 299 299 299 299 298 298 298 298 297 297 297 297 296 296 296 295 295 295 295 295 295 295 294 294 294 294 294 294 294 293 293 293 293 292 292 292 291 291 291 290 290 290 289 289 288 288 287 287 286 285 285 284 284 283 283 282 282 281 281 280 280 279 279 278 278 277 277 276 276 275 275 274 274 273 272 272 271 271 270 269 269
299 299 299 299 299 299 299 299 299 298 298 298 298 297 297 297 297 296 296 296 296 296 296 296 296 296 296 296 295 295 295 295 295 295 294 294 294 293 293 293 292 292 292 291 291 290 290 289 289 288 288 287 287 286 286 285 285 284 284 283 282 282 281 281 280 280 279 279 278 278 277 277 276 275 275 274 274 273 272 271 271 270 269 269 268 267
299 299 299 299 300 299 299 299 299 299 298 298 298 297 297 297 297 296 296 296 296 296 296 296 296 296 296 297 296 296 296 296 296 295 295 295 294 294 294 293 293 293 292 292 291 291 290 290 289 289 288 287 287 286 286 285 285 284 284 283 283 282 281 281 280 280 279 279 278 277 277 276 275 275 274 273 273 272 271 270 269 268 268 267 266 266
299 299 300 300 300 300 300 299 299 299 298 298 298 298 297 297 297 297 297 297 297 297 297 297 297 297 297 297 297 297 297 296 296 296 296 295 295 295 294 294 294 293 293 292 292 291 291 290 289 289 288 288 287 287 286 286 285 284 284 283 283 282 282 281 280 280 279 278 278 277 276 276 275 274 273 272 271 270 269 268 267 267 266 265 264 264
299 300 300 300 300 300 300 299 299 299 298 298 298 298 298 297 297 297 297 298 298 298 298 298 298 298 298 298 298 297 297 297 297 296 296 296 295 295 295 294 294 294 293 293 292 292 291 290 290 289 289 288 288 287 287 286 286 285 284 284 283 282 282 281 280 280 279 278 278 277 276 275 274 273 272 271 270 269 268 267 266 265 264 263 263 263
300 300 300 300 300 300 300 299 299 299 298 298 298 298 298 298 298 298 298 298 299 299 299 299 299 299 299 299 298 298 297 297 297 297 296 296 296 296 295 295 295 294 294 293 293 292 291 291 290 290 289 289 288 288 287 287 286 285 285 284 283 283 282 281 281 280 279 278 277 276 275 274 273 272 271 270 269 268 266 265 264 263 263 262 262 262
300 301 301 301 300 300 300 299 299 299 299 299 299 299 299 299 299 299 299 299 299 300 300 300 300 300 299 299 298 298 298 298 297 297 297 297 296 296 295 295 295 294 294 293 293 292 292 291 291 290 290 290 289 288 288 287 287 286 285 284 284 283 282 281 281 280 279 278 277 276 275 274 272 271 270 269 268 267 266 265 264 263 263 263 263 263
301 301 301 301 300 300 300 299 299 299 299 299 299 299 299 299 299 300 300 300 300 300 301 300 300 300 300 299 299 298 298 298 298 297 297 297 296 296 296 295 295 294 294 294 293 293 292 292 291 291 290 290 289 289 288 287 287 286 285 284 284 283 282 281 280 280 279 278 277 275 274 273 271 270 269 268 267 266 265 264 264 264 264 264 264 264
301 301 301 301 300 300 300 300 300 300 300 300 300 300 300 300 300 301 301 301 301 301 301 301 301 300 300 299 299 299 298 298 298 298 297 297 296 296 296 295 295 295 294 294 293 293 292 292 292 291 291 290 289 289 288 287 286 286 285 284 283 283 282 281 280 279 278 277 276 275 273 272 270 269 268 267 266 265 265 264 264 264 264 264 264 264
301 301 301 301 300 300 300 300 300 300 300 300 300 301 301 301 301 302 302 302 302 302 302 301 301 301 300 300 299 299 298 298 298 298 297 297 297 296 296 296 295 295 295 294 294 293 293 292 292 291 291 290 289 289 288 287 286 286 285 284 283 283 282 281 280 279 278 277 275 274 272 271 269 268 267 266 265 265 264 264 264 264 264 264 264 264
301 301 301 301 300 300 300 300 300 300 301 301 301 302 302 302 302 303 303 303 303 302 302 302 301 301 300 300 299 299 298 298 298 298 297 297 297 296 296 296 296 296 295 295 294 294 293 293 292 292 291 291 290 289 288 287 287 286 285 284 284 283 282 281 280 279 278 277 275 273 272 270 269 267 266 265 265 264 264 264 264 264 264 264 263 263
301 301 301 301 301 301 301 301 301 301 301 302 302 303 303 303 303 303 303 303 303 303 302 302 302 301 301 300 299 299 298 298 298 298 298 297 297 297 297 296 296 296 296 295 295 295 294 294 293 293 292 292 291 290 289 288 287 287 286 285 284 283 282 281 280 279 278 277 275 273 272 270 268 267 266 265 264 264 264 263 263 263 263 262 262 261
301 301 301 301 301 301 301 301 302 302 302 303 303 304 304 304 304 304 304 304 304 303 303 303 302 301 301 300 299 298 298 298 298 298 298 298 297 297 297 297 296 296 296 296 295 295 295 295 294 294 293 292 292 291 290 289 288 287 286 285 285 284 282 281 280 279 278 277 275 274 272 270 268 267 266 265 264 264 263 263 263 262 262 261 260 259
301 302 302 302 302 302 302 302 303 303 303 304 304 305 305 305 305 305 305 304 304 304 303 303 302 302 301 300 299 298 298 298 298 298 298 298 298 297 297 297 297 296 296 296 296 295 295 295 295 294 294 293 292 292 291 290 289 288 287 286 285 284 283 282 281 280 278 277 276 274 272 270 269 267 266 265 264 264 263 263 262 261 260 259 258 257
302 302 302 302 302 302 303 303 304 304 305 305 305 306 306 305 305 305 305 305 304 304 303 302 302 301 301 300 299 298 298 298 298 298 299 298 298 298 298 297 297 297 297 297 296 296 296 296 295 295 294 294 293 292 291 290 289 288 287 287 286 284 283 282 281 280 279 277 276 274 273 271 269 267 266 265 264 264 263 262 261 260 259 258 256 255
302 302 302 303 303 304 304 305 305 305 306 306 306 306 306 306 306 306 305 305 304 304 303 302 302 301 300 300 299 298 299 299 299 299 299 299 298 298 298 298 297 297 297 297 296 296 296 296 295 295 295 294 293 292 291 291 290 289 288 287 286 285 284 283 282 281 279 278 276 275 273 271 270 268 267 266 265 264 263 262 261 259 258 256 255 253
303 303 303 304 304 305 305 306 306 306 307 307 307 307 307 306 306 306 305 305 304 303 303 302 302 301 301 300 299 299 299 299 299 299 299 299 298 298 298 297 297 297 297 297 296 296 296 296 296 295 295 294 293 292 292 291 290 289 288 288 287 286 285 284 283 282 280 279 277 276 274 272 270 269 267 266 265 264 263 262 260 259 257 255 253 252
304 304 304 305 306 306 307 307 307 307 307 307 307 307 307 307 306 306 305 304 304 303 303 303 302 302 302 301 300 299 299 300 299 299 299 299 298 298 297 297 297 297 297 296 296 296 296 296 295 295 294 293 293 292 291 291 290 289 289 288 287 286 285 284 283 282 281 280 278 277 275 273 271 270 268 267 266 265 264 262 260 258 257 255 253 251
305 305 306 306 307 307 307 308 308 308 308 308 307 307 307 306 306 305 305 304 304 303 303 303 303 303 302 302 301 300 300 300 299 299 299 298 298 297 297 296 296 296 296 296 295 295 295 295 295 294 293 293 292 291 291 290 289 289 288 288 287 286 286 285 284 283 282 281 279 278 276 274 273 271 270 269 267 266 265 263 261 259 257 255 253 251
306 306 307 307 308 308 308 308 308 308 308 308 308 307 307 306 306 305 305 304 304 304 304 304 304 303 303 302 301 300 300 300 299 299 298 298 297 297 296 296 295 295 295 295 294 294 294 294 294 293 292 292 291 290 290 289 288 288 287 287 286 286 285 285 284 283 282 281 280 278 277 275 274 272 271 270 269 268 266 264 262 260 258 256 254 251
307 307 307 308 308 309 309 309 309 308 308 308 307 307 306 306 306 305 305 305 305 305 305 305 304 303 303 302 301 300 300 299 299 298 298 297 297 296 296 295 295 295 294 294 293 293 293 293 292 292 291 290 290 289 288 288 287 287 286 286 286 285 285 284 283 283 282 281 280 279 278 276 275 273 272 271 270 269 267 265 263 261 259 257 255 252
307 308 308 309 309 309 309 309 309 308 308 308 307 307 306 306 306 306 305 305 305 305 305 305 304 304 303 302 302 301 300 300 299 299 298 298 297 297 296 296 295 295 294 293 293 292 292 291 291 290 290 289 288 288 287 287 286 286 285 285 285 284 284 283 283 282 282 281 280 279 278 277 275 274 273 272 271 269 268 266 264 261 260 258 256 253
308 308 309 309 310 310 310 309 309 308 308 307 307 307 306 307 307 306 306 306 306 306 305 305 305 304 304 303 303 302 302 301 300 300 299 299 298 297 297 296 295 295 294 293 292 291 291 290 289 289 288 287 287 286 286 285 285 284 284 284 283 283 283 283 283 282 282 281 281 280 279 278 276 275 274 272 271 270 268 266 264 261 259 258 256 254
309 309 310 310 310 310 310 309 308 307 307 306 306 307 307 308 308 308 308 308 308 307 307 307 306 306 305 305 304 304 303 302 301 301 300 299 299 298 297 296 295 294 293 292 291 290 289 288 287 287 286 285 285 285 284 284 284 283 283 282 282 282 282 282 282 282 282 282 281 281 280 279 278 276 275 273 272 270 268 265 263 261 259 257 256 254
309 310 310 310 310 310 309 308 307 307 306 307 307 308 308 309 310 310 310 310 309 309 309 308 308 307 306 306 305 305 304 303 302 301 300 300 299 299 298 296 295 294 293 292 291 289 288 287 286 285 284 283 283 283 283 283 282 282 281 281 281 280 280 281 281 281 281 282 282 281 281 280 279 278 276 274 272 270 268 265 263 260 258 257 255 254
310 310 310 310 310 309 308 307 307 307 307 308 309 310 310 311 311 311 311 311 310 310 310 309 308 308 307 306 306 305 304 303 302 301 300 300 300 299 298 297 296 294 293 291 290 289 287 286 284 283 282 282 281 282 282 282 281 281 280 280 279 279 279 279 280 280 281 281 282 282 282 281 280 279 277 276 274 271 269 266 263 260 258 256 255 254
311 310 310 310 309 308 307 307 307 308 309 310 311 312 312 313 313 312 312 312 311 311 310 309 309 308 308 307 307 306 305 304 302 301 301 301 301 300 299 298 297 295 293 292 290 288 287 285 284 282 281 280 280 280 280 281 280 280 280 279 279 278 278 278 279 279 280 281 281 282 282 282 282 281 279 278 275 273 270 267 264 260 258 256 255 254
311 310 309 309 308 307 307 308 309 310 311 312 313 314 314 314 314 313 313 313 312 311 311 310 310 309 309 309 308 307 306 305 303 303 303 303 303 302 301 300 298 296 295 293 291 289 287 285 284 282 280 279 279 279 279 280 280 279 279 279 278 278 278 278 278 278 279 280 281 282 283 283 283 282 281 280 278 275 272 269 265 261 258 256 255 254
310 309 309 308 307 308 308 309 311 312 313 314 315 315 316 316 315 315 314 314 313 313 312 312 312 312 312 311 311 310 309 307 306 305 306 306 306 305 304 302 301 299 297 295 293 291 288 286 284 282 280 279 278 278 279 279 279 279 278 278 278 278 278 278 278 278 279 280 281 282 283 284 284 284 283 282 280 278 275 271 267 263 259 257 255 254
309 308 308 307 308 309 310 312 313 314 315 315 316 316 317 317 316 316 315 315 315 315 315 315 315 315 315 315 314 314 312 310 310 309 310 310 310 309 308 306 304 302 300 298 296 294 291 287 283 281 280 279 278 278 278 278 278 277 277 277 277 277 277 277 277 278 279 280 281 282 283 284 285 285 285 284 283 280 277 273 269 265 261 258 255 254
308 307 307 307 309 310 312 313 314 315 316 317 317 318 318 318 317 317 317 317 318 318 318 318 318 318 318 318 318 318 317 315 314 315 315 315 315 315 314 312 309 307 305 302 300 298 295 291 285 281 279 278 277 277 277 277 277 277 276 276 276 276 276 276 277 278 279 280 281 282 283 284 285 286 286 285 284 282 279 276 271 266 262 259 256 254
306 306 307 308 309 311 313 314 315 316 317 318 318 319 319 319 319 319 320 320 321 321 321 322 322 322 322 322 322 322 321 320 320 320 321 321 322 322 321 319 317 315 311 308 306 303 300 296 290 284 279 277 277 276 276 276 276 276 275 275 275 275 275 276 277 278 279 280 281 282 283 284 285 285 286 286 285 284 281 277 273 269 264 260 257 254
305 305 306 308 310 312 313 315 316 318 318 319 319 320 320 320 321 322 322 323 324 324 325 325 325 326 326 325 326 325 325 325 325 326 327 328 329 330 330 329 327 324 321 318 314 310 306 302 297 290 283 279 277 277 276 276 275 275 274 274 274 274 275 275 277 278 279 280 281 282 283 283 284 285 285 286 285 284 282 279 275 270 265 261 257 254
304 305 307 309 311 313 315 316 318 319 319 320 321 321 322 322 323 324 325 326 327 327 328 329 329 329 329 329 329 329 329 329 330 331 332 334 335 337 339 339 338 334 332 329 325 320 315 310 304 297 290 283 279 277 277 276 275 275 274 274 275 275 276 276 277 278 279 280 281 281 282 283 283 284 284 285 284 284 282 280 276 271 266 262 257 254
304 306 308 311 313 315 316 318 319 320 321 321 322 322 323 324 325 326 327 328 329 330 331 332 332 332 332 332 332 332 333 333 334 335 337 339 340 343 345 346 345 342 340 338 335 330 325 318 311 303 296 289 283 279 277 276 276 276 276 276 277 277 278 278 279 279 280 280 281 281 281 282 283 283 283 284 284 283 282 280 277 272 267 261 257 254
305 307 310 312 314 316 318 319 320 321 322 322 323 323 324 325 327 328 329 330 332 333 334 334 334 334 334 334 334 335 335 336 337 338 340 342 344 345 347 349 349 347 344 343 341 337 331 324 317 308 300 294 289 284 280 279 278 278 279 279 280 281 281 281 281 281 281 281 281 281 281 281 282 282 282 283 283 283 282 280 277 272 266 260 256 253
307 309 312 314 316 318 319 320 321 322 322 323 324 324 326 327 328 329 330 332 333 335 336 336 337 336 336 336 336 336 337 338 339 340 342 343 345 346 348 349 349 348 346 343 341 338 333 328 322 314 306 301 296 292 288 285 282 282 282 283 284 284 284 283 283 283 282 282 282 281 281 281 281 282 282 283 283 283 282 280 276 270 264 258 254 251
309 311 314 316 317 319 320 321 322 323 323 324 324 325 326 327 328 330 331 332 334 336 337 338 338 338 338 337 337 337 338 339 340 341 343 344 346 347 348 349 349 348 346 344 341 338 334 331 326 321 315 310 305 300 296 292 289 287 286 286 286 286 286 285 285 284 283 283 283 283 283 282 283 283 283 283 283 283 281 278 273 267 261 256 252 250
311 313 315 317 319 321 322 323 323 324 324 324 325 326 327 328 329 330 331 333 335 336 338 339 339 339 338 338 337 337 338 339 341 342 343 344 346 347 348 349 349 349 347 345 342 340 337 334 331 327 323 318 313 308 302 298 294 292 290 289 288 288 287 287 286 285 285 286 286 286 285 285 286 286 286 285 284 282 279 275 269 264 258 254 251 248
313 315 317 319 321 322 323 324 324 325 325 325 325 326 327 328 329 330 331 333 335 337 338 339 339 339 338 338 337 337 338 339 341 342 343 344 345 347 349 349 350 350 349 348 346 343 341 339 336 334 331 327 322 316 310 304 300 298 295 294 292 290 289 288 288 288 289 290 291 291 291 291 291 291 290 289 286 282 277 271 265 260 256 252 248 246
314 317 319 321 322 324 325 325 326 326 326 326 326 326 327 328 329 330 331 333 335 337 338 339 339 339 338 338 337 337 337 339 340 342 343 344 345 347 348 349 350 350 350 350 349 348 345 343 342 340 338 336 332 326 320 313 308 305 303 301 298 296 293 292 292 293 296 297 299 300 301 302 301 300 298 294 289 283 275 268 262 257 253 250 246 242
316 319 321 323 324 325 326 327 327 327 327 326 327 326 327 328 328 330 331 333 335 336 337 338 338 338 338 338 338 337 337 338 340 341 343 344 345 346 347 348 349 350 351 351 351 351 350 348 346 345 344 342 339 334 329 322 316 312 309 307 305 302 298 296 297 300 303 306 308 310 312 313 312 309 305 300 292 284 275 267 260 255 251 247 243 238
318 320 322 324 326 327 328 328 328 328 328 327 327 327 327 327 328 330 332 333 334 335 336 336 337 337 338 338 338 338 338 338 339 341 343 344 345 346 347 348 349 350 350 351 352 352 352 351 350 349 348 346 343 340 335 329 324 318 314 312 310 307 303 302 303 306 308 312 314 316 317 318 317 314 309 302 294 284 275 267 260 254 249 245 240 234
320 322 324 326 327 329 329 330 330 329 329 328 327 327 327 328 329 330 332 333 334 334 335 335 336 336 337 338 339 339 339 339 340 341 342 344 345 346 347 348 348 349 350 350 351 352 352 352 353 353 352 349 346 343 339 334 329 323 319 316 314 313 312 313 313 313 314 315 317 318 319 320 318 315 310 302 293 284 274 266 259 253 247 242 236 230
322 324 326 328 329 330 331 331 331 331 330 329 328 328 328 329 330 331 332 333 333 333 333 334 335 336 337 338 340 340 341 341 341 342 342 343 344 345 346 346 347 348 348 349 349 350 351 352 353 355 355 354 351 346 341 337 333 329 325 321 319 317 317 317 318 319 319 320 319 319 319 320 318 315 308 300 290 280 272 263 256 250 244 238 232 226
324 326 328 329 331 332 333 333 333 332 331 330 329 329 329 329 331 331 332 332 332 332 332 334 335 336 337 339 340 341 342 342 343 343 343 343 343 344 344 345 345 346 346 346 347 347 348 349 351 353 354 356 356 353 347 341 338 335 331 328 325 323 322 321 321 323 324 324 323 322 321 321 319 315 308 298 288 278 270 262 254 248 241 235 230 226
326 328 329 331 332 333 334 334 334 333 332 331 330 330 330 330 331 331 331 331 331 331 332 333 335 336 338 339 341 342 343 344 344 344 344 344 343 343 344 344 344 344 344 344 344 345 345 345 346 348 350 352 355 356 353 347 342 339 336 333 331 329 327 326 325 325 325 326 325 324 323 321 319 315 308 298 288 280 272 264 256 248 241 235 231 228
327 329 331 332 333 334 335 335 335 335 334 333 332 331 331 331 331 331 331 331 331 332 333 334 335 337 338 340 341 342 344 344 345 345 345 344 344 344 344 345 345 345 344 344 343 343 342 342 341 342 343 345 348 350 352 350 346 341 338 335 333 331 330 328 326 324 323 322 321 321 319 318 315 311 304 296 289 282 276 269 261 254 246 241 237 236
328 330 332 333 334 335 336 336 336 336 335 334 333 333 332 332 332 332 332 332 332 333 333 334 336 337 339 340 341 342 343 344 345 345 345 345 345 345 345 346 346 346 346 345 344 343 341 339 337 336 337 338 340 342 344 346 345 342 338 335 332 329 327 325 322 319 317 316 315 314 313 311 309 306 301 295 289 284 280 276 271 264 257 251 247 246
330 331 333 334 335 336 337 337 337 337 336 335 335 334 333 333 333 333 333 333 334 334 335 335 336 338 339 340 341 342 343 343 344 344 345 345 345 345 346 347 347 348 349 348 347 345 343 340 336 332 331 331 333 335 336 337 339 338 336 333 328 324 321 319 316 313 311 310 309 308 307 306 305 303 300 296 291 288 284 282 279 275 269 264 260 257